User: anonymous   Login
Location: Unspecified
(0.0000°N, 0.0000°E)
Time: 17:31:22
(UTC+00:00)
Language:

Tiros 1 - Orbit

View from above orbital plane
View from above orbital plane
View from above satellite
View from above satellite

Ground track
Ground track

The orbit data is extracted from the following two-line orbital elements,

1    29U 60002B   19266.42665700 -.00000129  00000-0  11721-4 0  9992
2    29  48.3791 133.4843 0023871 166.8296 193.3244 14.74318768179114
Epoch (UTC): 23 September 2019 10:14:23
Eccentricity: 0.0023871
inclination: 48.3791°
perigee height: 630 km
apogee height: 664 km
right ascension of ascending node: 133.4843°
argument of perigee: 166.8296°
revolutions per day: 14.74318768
mean anomaly at epoch: 193.3244°
orbit number at epoch: 17911

The dashed part of the orbit path shows where the satellite is in the earth's shadow,  

DLR